Regional Weather Roundup
Issued by NWS

Home | Current Version | Previous Version | Text Only | Print | Product List | Glossary Off
Versions: 1 2 3 4 5 6 7 8 9 10 11 12 13 14 15 16 17 18 19 20 21 22 23 24 25 26 27 28 29 30 31 32 33 34 35 36 37 38 39 40 41 42 43 44 45 46 47 48 49 50

000
ASUS43 KIND 250309
RWRIN

WEATHER ROUNDUP FOR INDIANA
NATIONAL WEATHER SERVICE INDIANAPOLIS IN
1100 PM EDT MON JUL 24 2017

NOTE: "FAIR" INDICATES FEW OR NO CLOUDS BELOW 12,000 FEET WITH NO
SIGNIFICANT WEATHER AND/OR OBSTRUCTIONS TO VISIBILITY.

* - STATION DOES NOT REPORT WEATHER SUCH AS PRECIPITATION OR FOG.

+ - STATION NOT QUALITY CONTROLLED BY THE NATIONAL WEATHER SERVICE.
    USE DATA WITH CAUTION...ESPECIALLY DEWPOINT AND RELATIVE
    HUMIDITY OBSERVATIONS.

INZ001>003-010>013-019-020-250400-
NORTHWEST INDIANA

CITY           SKY/WX    TMP DP  RH WIND       PRES   REMARKS
GARY /AIRPORT/ PTCLDY    68  61  77 NE5       30.11R
KNOX *+        CLEAR     61  61 100 NE5       30.10R
LA PORTE +     CLEAR     64  61  88 NE6       30.12R
MICHIGAN CITY+ CLEAR     61  61 100 CALM      30.11R
MONTICELLO +   CLEAR     66  63  89 N3        30.08R
RENSSELAER +   CLEAR     63  61  94 N6        30.10R
VALPARAISO     CLEAR     64  62  93 CALM      30.11R

$$

LMZ046-743>745-250400-
SOUTHERN LAKE MICHIGAN

STATION/POSITION TIME  TEMP    WIND        PRES    WAVE
                       AIR SEA DIR/SP/G            HT
                 (UTC) (F)     (DEG/KT/KT) (MB)    (FT)
BURNS HARBOR     0240   70      40/ 11/ 14 1019.6R
MICHIGAN CITY    0240   69      30/ 13/ 14   N/A
5NW MICH CITY    0300   70 74   40/ 10/ 12   N/A     4

$$

INZ004-005-014>016-021>024-250400-
NORTH CENTRAL INDIANA

CITY           SKY/WX    TMP DP  RH WIND       PRES   REMARKS
GOSHEN         CLEAR     62  56  80 CALM      30.10R
LOGANSPORT +   CLEAR     66  59  77 NE6       30.10R
PERU/GRISSOM   CLEAR     65  60  85 NE6       30.09R
ROCHESTER +    CLEAR     64  61  88 CALM      30.10R
SOUTH BEND     CLEAR     63  61  93 N8        30.11R
WARSAW +       CLEAR     61  59  94 CALM      30.10R

$$

INZ006>009-017-018-025>027-250400-
NORTHEAST INDIANA

CITY           SKY/WX    TMP DP  RH WIND       PRES   REMARKS
AUBURN +       CLEAR     61  57  88 CALM      30.11R
FORT WAYNE     CLEAR     63  57  81 CALM      30.11R
HUNTINGTON +   CLEAR     63  61  93 CALM      30.10R
KENDALLVILLE + CLEAR     59  59 100 CALM      30.11R

$$

INZ028-029-035-036-043>045-051>053-250400-
WEST CENTRAL INDIANA

CITY           SKY/WX    TMP DP  RH WIND       PRES   REMARKS
GREENCASTLE +  CLEAR     68  63  83 N5        30.07R
LAFAYETTE      CLEAR     67  63  87 N6        30.07R
TERRE HAUTE    CLEAR     70  64  81 NE6       30.05R

$$

INZ030>032-037>040-046>048-054>057-064-065-250400-
CENTRAL INDIANA

CITY           SKY/WX    TMP DP  RH WIND       PRES   REMARKS
CP ATTERBURY + CLEAR     68  63  83 NE6       30.08R
FRANKFORT +    CLEAR     68  64  88 E5        30.10R
GREENWOOD *+   CLEAR    N/A N/A N/A NE7       30.08R
INDIANAPOLIS   CLEAR     72  61  68 NE12      30.06R
-EAGLE CREEK   CLEAR     71  61  70 MISG      30.07R
KOKOMO +       CLEAR     65  61  87 NE7       30.10R
MARION +       CLOUDY    66  59  77 E5        30.11R
MT COMFORT *+  CLEAR     66  63  88 NE5       30.08R
SHELBYVILLE    CLEAR     68  62  81 E6        30.07R
ZIONSVILLE +   CLEAR     66  62  85 E3        30.09R

$$

INZ033-034-041-042-049-050-058-059-250400-
EAST CENTRAL INDIANA

CITY           SKY/WX    TMP DP  RH WIND       PRES   REMARKS
MUNCIE         MOCLDY    66  60  81 E6        30.10R
RICHMOND +     CLEAR     61  59  94 NE5       30.11R

$$

INZ060-061-067>069-081>083-085>088-250400-
SOUTHWEST INDIANA

CITY           SKY/WX    TMP DP  RH WIND       PRES   REMARKS
EVANSVILLE     CLEAR     77  68  73 N3        30.02R
HUNTINGBURG *+ CLEAR     75  69  81 N5        30.03R

$$

INZ062-063-066-070>080-084-089>092-250400-
SOUTH CENTRAL AND SOUTHEAST INDIANA

CITY           SKY/WX    TMP DP  RH WIND       PRES   REMARKS
BEDFORD +      MOCLDY    72  66  83 NE3       30.04R
BLOOMINGTON    CLEAR     73  64  73 NE6       30.05R
MADISON *+     CLEAR     72  64  78 NE3       30.07R
NORTH VERNON + CLEAR     68  66  94 NE5       30.06R
SEYMOUR +      CLEAR    N/A N/A N/A NE7       30.04R

$$




USA.gov is the U.S. government's official web portal to all federal, state and local government web resources and services.